www.pogodaiklimat.ru

Погода и климат >> Архив погоды >> Австралия >> Западная Австралия >> Джайлс


ПОГОДА в Джайлсе

  • Прогноз погоды в Джайлсе
  • Монитор погоды в Джайлсе

АРХИВ ПОГОДЫ в Джайлсе

Время (UTC), дата Ветер
(напр.,м/с)
 
Видим.   Явления Облачность Т
(С)
Тd
(С)
f
(%)
Тe
(С)
Тes
(С)
Комфортность P
(гПа)
Po
(гПа)
Тmin
(С)
Tmax
(С)
R
(мм)
R24
(мм)
S
(см)
01 15.08 С 9 н/о н/о +20.1 -15.4 8 +19 +19 1020.5 951.4
02 15.08 С 9 40 км 1/0
[Ac As]
+22.1 -16.5 6 +20 +20 1020.2 951.1 +14.3
03 15.08 С 7 н/о н/о +23.3 -16.4 6 +20 +20 1020.0 950.9
04 15.08 СЗ 6 н/о н/о +24.0 -15.6 6 +21 +21 комфорт 1018.8 949.8
05 15.08 СЗ 6 40 км 1/0
[Ac trans]
+24.9 -13.9 7 +22 +22 комфорт 1017.8 948.9
06 15.08 СЗ 6 н/о н/о +24.9 -14.8 6 +22 +22 комфорт 1017.1 948.2
07 15.08 С 5 н/о н/о +25.5 -13.7 7 +22 +22 комфорт 1016.5 947.7
08 15.08 С 6 40 км 1/0
[Ac trans]
+25.3 -13.7 7 +22 +22 комфорт 1016.7 947.8
09 15.08 СЗ 4 н/о н/о +23.5 -11.6 9 +21 +21 комфорт 1017.1 948.2
10 15.08 СЗ 2 н/о н/о +20.6 -8.7 13 +21 +21 комфорт 1017.7 948.8
11 15.08 С 3 40 км 1/0
[Ac trans]
+19.9 -6.2 17 +20 +20 1017.9 949.0
12 15.08 С 3 н/о н/о +18.8 -7.6 16 +19 +19 1018.2 949.2
13 15.08 С 3 н/о н/о +17.8 -8.1 16 +18 +18 1018.3 949.3
14 15.08 С 3 н/о н/о +17.8 -5.5 20 +18 +18 1017.9 949.0 +26.2
15 15.08 Ю 4 н/о н/о +15.4 +4.1 47 +15 +15 1019.0 950.0
16 15.08 Ю 3 н/о н/о +14.7 +7.0 60 +14 +14 1018.9 949.9
17 15.08 Ю 3 н/о 10/0
[]
+13.9 +7.6 66 +13 +13 1018.7 949.7
18 15.08 штиль 0 н/о н/о +13.5 +8.2 70 +13 +13 1018.6 949.6
19 15.08 Ю 2 н/о н/о +12.3 +8.4 77 +11 +11 1018.6 949.6
20 15.08 Ю 2 40 км 8/0
[Ac cast]
+11.5 +9.0 85 +11 +11 1018.5 949.5
21 15.08 Ю 3 н/о н/о +11.3 +8.8 85 +10 +10 1019.2 950.2
22 15.08 ЮВ 3 н/о н/о +12.3 +8.8 79 +11 +11 1019.4 950.4
23 15.08 Ю 3 40 км 9/1 600 м
[Cu hum Ac cast]
+13.4 +8.8 74 +12 +12 1020.1 951.0
00 16.08 Ю 5 н/о н/о +15.0 +8.0 63 +14 +14 1020.2 951.1
01 16.08 Ю 6 н/о н/о +16.3 +7.8 57 +15 +15 1020.3 951.2
02 16.08 ЮВ 6 40 км осадки на расстоянии 9/0
[Ac cast]
+18.3 +7.1 48 +18 +18 1019.7 950.6 +11.1
03 16.08 ЮВ 6 н/о н/о +19.1 +5.9 42 +19 +19 1018.7 949.7
04 16.08 ЮВ 4 н/о н/о +21.0 +3.8 32 +22 +22 комфорт 1017.8 948.9
05 16.08 С 2 40 км 9/0
[Ac As]
+23.3 +0.4 22 +22 +22 комфорт 1017.1 948.2
06 16.08 З 5 н/о н/о +22.4 -0.7 21 +21 +21 комфорт 1017.0 948.1
07 16.08 ЮЗ 4 н/о н/о +21.3 +3.4 31 +21 +21 комфорт 1016.7 947.8
08 16.08 ЮЗ 4 40 км осадки на расстоянии 9/1 2000 м
[Cu med, cong Ac As]
+20.6 +4.1 34 +21 +21 комфорт 1016.8 947.9
09 16.08 штиль 0 н/о н/о +19.6 +6.1 41 +20 +20 1016.7 947.8
10 16.08 ЮЗ 2 н/о н/о +18.5 +6.1 44 +20 +20 1017.1 948.2
11 16.08 ЮЗ 3 40 км {ливн. осадки} 6/0
[Ac trans]
+17.4 +4.2 42 +18 +18 1017.8 948.9 0.0
12 16.08 ЮЗ 3 н/о н/о +15.8 +4.4 47 +16 +16 1017.9 949.0
13 16.08 СЗ 2 н/о н/о +14.4 +3.8 49 +14 +14 1018.2 949.2
14 16.08 СЗ 2 н/о н/о +14.0 +3.8 50 +14 +14 1018.1 949.1 +23.5
15 16.08 ЮЗ 3 н/о н/о +12.2 +4.8 61 +11 +11 1018.5 949.5
16 16.08 ЮЗ 1 н/о н/о +11.1 +6.4 73 +12 +12 1018.6 949.6
17 16.08 Ю 1 н/о н/о +10.3 +7.0 80 +11 +11 1018.2 949.2
18 16.08 В 1 н/о н/о +10.3 +7.9 85 +11 +11 1017.6 948.7
19 16.08 ЮВ 3 н/о н/о +10.3 +7.7 84 +8 +8 1017.1 948.2
20 16.08 В 3 40 км 1/0
[Ac trans]
+9.8 +8.0 89 +8 +8 1017.1 948.2
21 16.08 В 3 н/о н/о +9.9 +8.1 89 +8 +8 1017.2 948.3
22 16.08 В 2 н/о н/о +10.4 +8.2 86 +9 +9 1017.5 948.6
23 16.08 В 2 40 км 1/1 2000 м
[Sc]
+13.2 +8.3 72 +13 +13 1018.2 949.2 0.0
00 17.08 ЮЗ 4 н/о н/о +15.9 +5.6 50 +15 +15 1018.7 949.7
01 17.08 ЮЗ 5 н/о н/о +17.3 +1.0 33 +17 +17 1018.8 949.8
02 17.08 ЮЗ 6 40 км ясно +18.6 -0.8 27 +18 +18 1018.8 949.8 +8.7
03 17.08 ЮЗ 6 н/о н/о +19.7 +0.2 27 +19 +19 1018.2 949.2
04 17.08 ЮЗ 6 н/о н/о +20.4 -4.0 19 +20 +20 1017.4 948.5
05 17.08 ЮЗ 5 40 км ясно +22.2 -6.8 14 +21 +21 комфорт 1016.5 947.7
06 17.08 ЮЗ 6 н/о н/о +22.1 -6.5 14 +21 +21 комфорт 1016.3 947.5
07 17.08 ЮЗ 5 н/о н/о +22.5 -6.0 14 +21 +21 комфорт 1016.5 947.7
08 17.08 ЮЗ 6 40 км ясно +21.9 -7.7 13 +20 +20 1017.1 948.2
09 17.08 ЮЗ 4 н/о н/о +20.6 -5.9 16 +20 +20 1017.5 948.6
10 17.08 ЮЗ 3 н/о н/о +17.6 -2.4 25 +18 +18 1018.3 949.3
11 17.08 ЮЗ 3 40 км ясно +16.2 -2.8 27 +16 +16 1019.1 950.1
12 17.08 ЮЗ 3 н/о н/о +14.2 -3.5 29 +14 +14 1019.9 950.8
13 17.08 З 1 н/о н/о +12.8 -2.2 35 +13 +13 1020.6 951.5
14 17.08 ЮЗ 4 н/о н/о +13.0 -2.2 35 +12 +12 1021.1 951.9 +23.1
15 17.08 ЮЗ 3 н/о н/о +11.3 -2.5 38 +10 +10 1021.3 952.1
16 17.08 Ю 6 н/о н/о +11.8 -4.0 33 +9 +9 1021.8 952.6
17 17.08 Ю 4 н/о н/о +10.3 -4.3 36 +9 +9 1021.8 952.6
18 17.08 Ю 6 н/о н/о +10.4 -5.3 33 +8 +8 1022.0 952.8
19 17.08 Ю 6 н/о н/о +9.6 -5.5 34 +7 +7 1022.2 953.0
20 17.08 Ю 5 н/о н/о +8.3 -4.9 39 +6 +6 1022.7 953.4
21 17.08 Ю 4 н/о н/о +6.9 -4.5 44 +4 +4 1023.3 954.0
22 17.08 Ю 5 н/о н/о +6.5 -4.4 46 +3 +3 1024.0 954.6
23 17.08 ЮВ 8 40 км ясно +8.8 -3.4 42 +5 +5 1024.9 955.6
00 18.08 ЮВ 10 н/о н/о +10.5 -2.8 39 +7 +7 1025.3 955.9
01 18.08 Ю 9 н/о н/о +11.9 -3.5 34 +9 +9 1025.9 956.4
02 18.08 ЮВ 8 40 км ясно +13.4 -4.8 28 +11 +11 1026.0 956.5 +6.4
03 18.08 Ю 8 н/о н/о +14.3 -6.5 23 +12 +12 1025.3 955.9
04 18.08 ЮВ 7 н/о н/о +15.9 -10.1 16 +15 +15 1024.6 955.2
05 18.08 Ю 7 40 км ясно +16.7 -10.9 14 +16 +16 1024.0 954.6
06 18.08 Ю 7 н/о н/о +17.7 -11.8 12 +17 +17 1023.5 954.2
07 18.08 Ю 7 н/о н/о +17.9 -14.2 10 +17 +17 1023.4 954.1
08 18.08 ЮВ 7 40 км ясно +17.1 -14.0 11 +16 +16 1024.0 954.6
09 18.08 Ю 8 н/о н/о +15.7 -13.6 12 +14 +14 1024.4 955.0
10 18.08 Ю 5 н/о н/о +13.7 -10.8 17 +12 +12 1025.1 955.7
11 18.08 Ю 6 40 км ясно +12.7 -9.3 21 +11 +11 1025.8 956.3
12 18.08 Ю 5 н/о н/о +11.3 -7.8 25 +9 +9 1026.5 957.0
13 18.08 ЮВ 4 н/о н/о +9.3 -7.6 30 +7 +7 1027.1 957.5
14 18.08 Ю 5 н/о н/о +8.3 -6.7 34 +6 +6 1027.3 957.7 +18.6
15 18.08 ЮВ 5 н/о н/о +8.2 -5.6 37 +5 +5 1027.7 958.1
16 18.08 ЮВ 5 н/о н/о +7.9 -4.1 42 +5 +5 1027.8 958.2
17 18.08 ЮВ 5 н/о н/о +7.6 -3.4 46 +4 +4 1027.6 958.0
18 18.08 ЮВ 6 н/о н/о +7.5 -3.2 47 +4 +4 1027.2 957.6
19 18.08 ЮВ 4 н/о н/о +6.7 -3.0 50 +4 +4 1027.3 957.7
20 18.08 ЮВ 5 н/о н/о +6.1 -3.1 52 +3 +3 1027.9 958.3
21 18.08 ЮВ 5 н/о н/о +5.2 -3.0 55 +1 +1 1028.8 959.1
22 18.08 ЮВ 5 н/о н/о +4.5 -3.0 58 0 0 1029.5 959.8
23 18.08 ЮВ 7 40 км ясно +7.0 -2.6 50 +3 +3 1030.5 960.7
00 19.08 ЮВ 9 н/о н/о +8.6 -2.3 46 +4 +4 1030.8 961.0
01 19.08 В 8 н/о н/о +10.2 -3.0 39 +7 +7 1031.1 961.3
02 19.08 ЮВ 8 40 км ясно +12.1 -4.8 30 +10 +10 1030.8 961.0 +4.4
03 19.08 ЮВ 7 н/о н/о +14.0 -6.8 23 +12 +12 1029.8 960.1
04 19.08 ЮВ 7 н/о н/о +15.2 -7.5 20 +14 +14 1028.9 959.2
05 19.08 ЮВ 7 40 км ясно +16.5 -10.4 15 +15 +15 1028.1 958.5
06 19.08 ЮВ 7 н/о н/о +17.2 -10.1 14 +16 +16 1027.4 957.8
07 19.08 ЮВ 7 н/о н/о +17.8 -10.9 13 +17 +17 1027.0 957.4
08 19.08 ЮВ 8 40 км ясно +17.5 -11.2 13 +16 +16 1027.1 957.5
09 19.08 ЮВ 8 н/о н/о +16.0 -9.3 17 +15 +15 1027.6 958.0
10 19.08 ЮВ 7 н/о н/о +14.6 -8.5 19 +13 +13 1028.8 959.1
11 19.08 ЮВ 7 40 км ясно +13.6 -7.7 22 +12 +12 1030.0 960.2
12 19.08 ЮВ 7 н/о н/о +12.6 -7.0 25 +10 +10 1030.5 960.7
13 19.08 ЮВ 6 н/о н/о +11.3 -5.9 29 +9 +9 1030.7 960.9
14 19.08 ЮВ 6 н/о н/о +10.4 -5.0 33 +8 +8 1030.8 961.0 +18.5
15 19.08 ЮВ 6 н/о н/о +9.5 -4.6 37 +7 +7 1030.7 960.9
16 19.08 ЮВ 5 н/о н/о +8.5 -3.9 41 +6 +6 1030.5 960.7
17 19.08 ЮВ 7 н/о н/о +8.1 -3.8 43 +4 +4 1030.2 960.4
18 19.08 ЮВ 6 н/о н/о +7.2 -3.3 47 +4 +4 1030.1 960.3
19 19.08 ЮВ 4 н/о н/о +5.8 -2.9 54 +2 +2 1029.8 960.1
20 19.08 ЮВ 4 н/о н/о +5.5 -3.0 54 +2 +2 1029.8 960.1
21 19.08 ЮВ 4 н/о н/о +4.0 -3.0 60 0 0 1030.3 960.5
22 19.08 ЮВ 5 н/о н/о +4.0 -3.0 60 -0 -0 1031.0 961.2
23 19.08 ЮВ 6 40 км ясно +7.3 -2.8 49 +3 +3 1031.6 961.7
00 20.08 В 8 н/о н/о +10.7 -3.3 37 +7 +7 1032.2 962.3
01 20.08 В 8 н/о н/о +12.8 -3.5 32 +10 +10 1032.6 962.7
02 20.08 В 7 40 км ясно +14.8 -5.1 25 +13 +13 1032.0 962.1 +3.8
03 20.08 В 7 н/о н/о +16.5 -5.5 22 +15 +15 1031.2 961.4
04 20.08 ЮВ 6 н/о н/о +17.0 -7.3 18 +16 +16 1030.2 960.4
05 20.08 В 7 40 км ясно +18.4 -9.7 14 +18 +18 1029.1 959.4
06 20.08 ЮВ 7 н/о н/о +18.9 -9.4 14 +18 +18 1028.1 958.5
07 20.08 В 8 н/о н/о +19.4 -11.1 12 +18 +18 1027.7 958.1
08 20.08 ЮВ 6 40 км ясно +19.6 -10.4 12 +19 +19 1027.6 958.0
09 20.08 ЮВ 6 н/о н/о +17.9 -9.9 14 +17 +17 1027.8 958.2
10 20.08 ЮВ 4 н/о н/о +15.7 -9.6 17 +15 +15 1028.2 958.6
11 20.08 ЮВ 4 40 км ясно +14.6 -8.5 19 +14 +14 1028.5 958.8
12 20.08 ЮВ 4 н/о н/о +13.1 -7.8 23 +12 +12 1029.0 959.3
13 20.08 ЮВ 5 н/о н/о +11.0 -8.0 26 +9 +9 1029.2 959.5
14 20.08 ЮВ 6 н/о н/о +10.9 -7.2 27 +9 +9 1029.1 959.4 +20.2
15 20.08 ЮВ 4 н/о н/о +9.6 -6.1 32 +8 +8 1029.0 959.3
16 20.08 ЮВ 5 н/о н/о +8.8 -6.2 34 +6 +6 1028.8 959.1
17 20.08 ЮВ 5 н/о н/о +8.3 -5.8 36 +6 +6 1028.3 958.7
18 20.08 ЮВ 5 н/о н/о +9.1 -4.8 37 +6 +6 1027.8 958.2
19 20.08 ЮВ 5 н/о н/о +8.2 -4.4 41 +5 +5 1027.8 958.2
20 20.08 ЮВ 5 н/о н/о +7.6 -3.8 44 +4 +4 1027.8 958.2
21 20.08 ЮВ 6 н/о н/о +7.0 -3.6 47 +3 +3 1028.1 958.5
22 20.08 В 5 н/о н/о +7.0 -2.5 51 +3 +3 1028.5 958.8
23 20.08 В 7 40 км ясно +11.1 -1.9 40 +8 +8 1029.1 959.4
00 21.08 В 6 н/о н/о +13.0 -2.7 33 +11 +11 1029.7 960.0
01 21.08 В 8 н/о н/о +14.6 -4.1 27 +13 +13 1029.8 960.1
02 21.08 В 7 40 км ясно +16.4 -5.2 22 +15 +15 1029.1 959.4 +6.5
03 21.08 В 6 н/о н/о +17.9 -7.0 18 +17 +17 1028.2 958.6
04 21.08 В 6 н/о н/о +19.2 -9.1 14 +19 +19 1027.0 957.4
05 21.08 В 6 40 км ясно +20.4 -11.8 10 +19 +19 1026.0 956.5
06 21.08 В 6 н/о н/о +21.2 -14.3 8 +20 +20 1025.2 955.8
07 21.08 В 5 н/о н/о +21.4 -16.2 7 +20 +20 1024.7 955.3
08 21.08 В 6 40 км 1/0
[Ac trans]
+20.9 -16.7 7 +20 +20 1024.6 955.2
09 21.08 В 5 н/о н/о +19.4 -15.0 8 +19 +19 1024.7 955.3
10 21.08 В 3 н/о н/о +15.9 -12.2 13 +16 +16 1025.2 955.8
11 21.08 В 3 40 км 1/0
[Ac trans]
+13.8 -10.6 17 +13 +13 1025.8 956.3
12 21.08 В 3 н/о н/о +12.4 -11.3 18 +12 +12 1026.1 956.6
13 21.08 В 4 н/о н/о +12.3 -11.6 18 +11 +11 1025.9 956.4
14 21.08 В 4 н/о н/о +11.2 -10.8 20 +10 +10 1026.0 956.5 +21.9
15 21.08 В 4 н/о н/о +11.2 -10.8 20 +10 +10 1026.0 956.5
16 21.08 В 3 н/о н/о +11.0 -7.9 26 +10 +10 1026.1 956.6
17 21.08 ЮВ 3 н/о н/о +9.0 -8.2 29 +7 +7 1025.7 956.2
18 21.08 ЮВ 3 н/о н/о +6.8 -8.6 32 +5 +5 1025.5 956.0
19 21.08 ЮВ 2 н/о н/о +7.4 -7.5 34 +6 +6 1025.2 955.8
20 21.08 ЮВ 3 н/о н/о +5.9 -7.0 39 +4 +4 1025.1 955.7
21 21.08 В 4 н/о н/о +7.9 -6.5 35 +6 +6 1025.7 956.2
22 21.08 В 3 н/о н/о +7.5 -6.4 37 +5 +5 1026.3 956.8
23 21.08 В 3 40 км ясно +11.7 -5.5 30 +11 +11 1026.8 957.3
00 22.08 В 6 н/о н/о +14.2 -5.3 25 +13 +13 1027.2 957.6
01 22.08 СВ 6 н/о н/о +16.1 -5.3 23 +15 +15 1027.1 957.5
02 22.08 СВ 7 40 км ясно +17.0 -8.3 17 +16 +16 1026.5 957.0 +5.7

 

Местоположение метеостанции Джайлс (Западная Австралия, Австралия): широта -25.03 долгота 128.30 высота над уровнем моря 599 м.

В архиве по умолчанию представлена погода в Джайлсе за последнюю неделю. Архивные данные за месяц целиком и за предыдущие месяцы, начиная с января 2011 года, Вы можете получить, выбрав интересующий диапазон дат из раскрывающегося списка и нажав кнопку "Ввод!".


*Определитесь, кто Вы:
робот инопланетянин человек

Внимание! Время в таблицах - всемирное. Для получения местного времени необходимо прибавить поправку, которая равна 8 ч.

Смотрите также архив погоды в соседних городах и на ближайших метеорологических станциях:

Погода в Уорбертоне (Западная Австралия, Австралия) (212 км)
Погода в Кинторе (Северная территория, Австралия) (224 км)
Погода в Юларе (Северная территория, Австралия) (271 км)
Погода в Эрнабелле (Южная Австралия, Австралия) (413 км)
Погода в Раббит Флат (Северная территория, Австралия) (568 км)
Погода в Элис-Спрингсе (Северная территория, Австралия) (581 км)
Погода на Виноградной ферма (Северная территория, Австралия) (614 км)
Погода в Форресте (Западная Австралия, Австралия) (645 км)
Погода в Лавертоне (Западная Австралия, Австралия) (707 км)
Погода в Телфере (Западная Австралия, Австралия) (723 км)

Пояснения к столбцам:

Ветер - указаны скорость ветра в м/с - средняя за 10 мин, порывы в срок и между сроками (в фигурных скобках) и направление, откуда дует ветер: С - северный, СВ - северо-восточный, В - восточный, ЮВ - юго-восточный, Ю - южный, ЮЗ - юго-западный, З - западный, СЗ - северо-западный.
Видимость - горизонтальная дальность видимости в метрах или километрах. При видимости от 1 до 10 км при отсутствии осадков обычно наблюдается дымка, при ухудшении видимости до 1 км и менее - туман. В сухую погоду видимость может ухудшаться дымом, пылью или мглою.
Явления - указаны атмосферные явления, наблюдавшиеся в срок или в последний час перед сроком; фигурными скобками обозначены явления, наблюдавшиеся между сроками (за 1-3 часа до срока); квадратными скобками обозначены град или гололедные отложения с указанием их диаметра в мм.
Облачность - указаны через наклонную черту общая и нижняя облачность в баллах и высота нижней границы облаков в метрах; квадратными скобками обозначены формы облаков: Ci - перистые, Cs - перисто-слоистые, Cc - перисто-кучевые, Ac - высококучевые, As - высокослоистые, Sc - слоисто-кучевые, Ns - слоисто-дождевые, Cu - кучевые, Cb - кучево-дождевые. Подробнее классификацию облаков см. в Атласе облаков (PDF).
T - Температура воздуха - температура, измеренная на высоте 2 м над землей.
Td - Температура точки росы - температура, при понижении до которой содержащийся в воздухе водяной пар достигнет насыщения.
f - Относительная влажность воздуха - влажноcть воздуха, измеренная на высоте 2 м над землей.
Te - Эффективная температура - температура, которую ощущает одетый по сезону человек в тени. Характеристика душности погоды. При расчете учитывается влияние влажности воздуха и скорости ветра на теплоощущения человека.
Tes - Эффективная температура на солнце - температура, которую ощущает человек, с поправкой на солнечный нагрев. Характеристика знойности погоды. Зависит от высоты солнца над горизонтом, облачности и скорости ветра. Ночью, в пасмурную погоду, а также при ветре 12 м/с и более поправка равна нулю.
P - Атмосферное давление - приведенное к уровню моря атмосферное давление.
Po - Атмосферное давление - измеренное на уровне метеостанции атмосферное давление.
Tmin - Минимальная температура - минимум температуры воздуха на высоте 2 м над землей.
Tmax - Максимальная температура - максимум температуры воздуха на высоте 2 м над землей.
R - Количество осадков - Количество выпавших осадков за период времени, мм. При наведении курсора мыши на число - период времени, за который выпало указанное количество осадков.
R24 - Количество осадков - Количество выпавших осадков за 24 часа, мм.
S - Снежный покров - Высота снежного покрова, см. При наведении курсора мыши на число - состояние снежного покрова и степень покрытия местности в баллах.